Location: Courcelles
(49.2596°N, 1.7419°E)
Time: 21:43:07
(UTC+00:00)

Geosat - Pass Details

Date: 17 November 2025
Orbit: 758 x 760 km, 108.0° (Epoch: 05 December)

Event Time Altitude Azimuth Distance (km) Brightness Sun altitude
Exits shadow 18:04:08 31° 109° (ESE) 1,319 4.7 -18.6°
Maximum altitude 18:06:12 50° 53° (NE) 967 4.1 -18.9°
Drops below altitude 10° 18:11:02 10° 339° (NNW) 2,303 6.6 -19.7°
Sets 18:13:22 0° 334° (NNW) 3,233 7.5 -20.1°
